Time,TemperatureF,DewpointF,PressureIn,WindDirection,WindDirectionDegrees,WindSpeedMPH,WindSpeedGustMPH,Humidity,HourlyPrecipIn,Conditions,Clouds,dailyrainin,SoftwareType,DateUTC
2013-05-19 00:02:00,69.0,60.0,-100.00,ESE,115,7.0,11.0,72,-99.99,,,-99.99,,2013-05-19 05:02:00,
2013-05-19 00:12:00,70.0,60.0,-100.00,ESE,120,8.0,11.0,71,-99.99,,,-99.99,,2013-05-19 05:12:00,
2013-05-19 00:22:00,69.0,59.0,-100.00,ESE,115,7.0,12.0,71,-99.99,,,-99.99,,2013-05-19 05:22:00,
2013-05-19 00:32:00,69.0,59.0,-100.00,ESE,115,7.0,12.0,71,-99.99,,,-99.99,,2013-05-19 05:32:00,
2013-05-19 00:42:00,69.0,59.0,-100.00,ESE,115,7.0,12.0,71,-99.99,,,-99.99,,2013-05-19 05:42:00,
2013-05-19 01:12:00,68.0,59.0,-100.00,ESE,120,6.0,10.0,74,-99.99,,,-99.99,,2013-05-19 06:12:00,
2013-05-19 01:21:00,67.0,59.0,-100.00,East,100,6.0,11.0,77,-99.99,,,-99.99,,2013-05-19 06:21:00,
2013-05-19 01:32:00,67.0,59.0,-100.00,East,100,6.0,11.0,77,-99.99,,,-99.99,,2013-05-19 06:32:00,
2013-05-19 01:42:00,66.0,59.0,-100.00,East,100,6.0,9.0,79,-99.99,,,-99.99,,2013-05-19 06:42:00,
2013-05-19 01:52:00,65.0,59.0,-100.00,East,100,6.0,9.0,81,-99.99,,,-99.99,,2013-05-19 06:52:00,
2013-05-19 02:01:00,65.0,59.0,-100.00,East,100,6.0,9.0,81,-99.99,,,-99.99,,2013-05-19 07:01:00,
2013-05-19 02:11:00,65.0,59.0,-100.00,ESE,105,10.0,12.0,81,-99.99,,,-99.99,,2013-05-19 07:11:00,
2013-05-19 02:21:00,65.0,59.0,-100.00,ESE,115,9.0,12.0,81,-99.99,,,-99.99,,2013-05-19 07:21:00,
2013-05-19 02:32:00,65.0,59.0,-100.00,ESE,115,9.0,12.0,81,-99.99,,,-99.99,,2013-05-19 07:32:00,
2013-05-19 02:42:00,65.0,59.0,-100.00,ESE,115,6.0,9.0,82,-99.99,,,-99.99,,2013-05-19 07:42:00,
2013-05-19 02:52:00,65.0,59.0,-100.00,ESE,110,7.0,9.0,83,-99.99,,,-99.99,,2013-05-19 07:52:00,
2013-05-19 03:01:00,65.0,59.0,-100.00,ESE,110,7.0,9.0,83,-99.99,,,-99.99,,2013-05-19 08:01:00,
2013-05-19 03:12:00,65.0,59.0,-100.00,ESE,115,8.0,10.0,83,-99.99,,,-99.99,,2013-05-19 08:12:00,
2013-05-19 03:22:00,65.0,59.0,-100.00,ESE,120,7.0,9.0,83,-99.99,,,-99.99,,2013-05-19 08:22:00,
2013-05-19 03:32:00,65.0,59.0,-100.00,ESE,120,7.0,9.0,83,-99.99,,,-99.99,,2013-05-19 08:32:00,
2013-05-19 03:42:00,65.0,60.0,-100.00,SE,135,7.0,10.0,84,-99.99,,,-99.99,,2013-05-19 08:42:00,
2013-05-19 03:52:00,65.0,60.0,-100.00,SE,135,7.0,11.0,84,-99.99,,,-99.99,,2013-05-19 08:52:00,
2013-05-19 04:02:00,65.0,60.0,-100.00,SE,135,7.0,11.0,84,-99.99,,,-99.99,,2013-05-19 09:02:00,
2013-05-19 04:12:00,65.0,60.0,-100.00,SE,135,6.0,10.0,84,-99.99,,,-99.99,,2013-05-19 09:12:00,
2013-05-19 04:21:00,64.0,60.0,-100.00,ESE,120,7.0,10.0,86,-99.99,,,-99.99,,2013-05-19 09:21:00,
2013-05-19 04:32:00,64.0,60.0,-100.00,ESE,120,7.0,10.0,86,-99.99,,,-99.99,,2013-05-19 09:32:00,
2013-05-19 04:43:00,65.0,60.0,-100.00,SE,130,6.0,11.0,84,-99.99,,,-99.99,,2013-05-19 09:43:00,
2013-05-19 04:53:00,64.0,60.0,-100.00,ESE,115,6.0,10.0,86,-99.99,,,-99.99,,2013-05-19 09:53:00,
2013-05-19 05:02:00,64.0,60.0,-100.00,ESE,115,6.0,10.0,86,-99.99,,,-99.99,,2013-05-19 10:02:00,
2013-05-19 05:12:00,63.0,59.0,-100.00,East,100,2.0,6.0,88,-99.99,,,-99.99,,2013-05-19 10:12:00,
2013-05-19 05:23:00,63.0,59.0,-100.00,ESE,115,4.0,5.0,88,-99.99,,,-99.99,,2013-05-19 10:23:00,
2013-05-19 05:33:00,63.0,59.0,-100.00,ESE,115,4.0,5.0,88,-99.99,,,-99.99,,2013-05-19 10:33:00,
2013-05-19 05:42:00,63.0,59.0,-100.00,ESE,120,5.0,6.0,88,-99.99,,,-99.99,,2013-05-19 10:42:00,
2013-05-19 05:53:00,63.0,60.0,-100.00,ESE,115,6.0,8.0,88,-99.99,,,-99.99,,2013-05-19 10:53:00,
2013-05-19 06:02:00,63.0,60.0,-100.00,ESE,115,6.0,8.0,88,-99.99,,,-99.99,,2013-05-19 11:02:00,
2013-05-19 06:12:00,63.0,59.0,-100.00,ESE,120,4.0,6.0,88,-99.99,,,-99.99,,2013-05-19 11:12:00,
2013-05-19 06:21:00,62.0,59.0,-100.00,East,85,1.0,2.0,89,-99.99,,,-99.99,,2013-05-19 11:21:00,
2013-05-19 06:32:00,62.0,59.0,-100.00,East,85,1.0,2.0,89,-99.99,,,-99.99,,2013-05-19 11:32:00,
2013-05-19 06:42:00,62.0,59.0,-100.00,East,95,4.0,4.0,90,-99.99,,,-99.99,,2013-05-19 11:42:00,
2013-05-19 06:52:00,62.0,59.0,-100.00,East,85,1.0,4.0,90,-99.99,,,-99.99,,2013-05-19 11:52:00,
2013-05-19 07:01:00,62.0,59.0,-100.00,East,85,1.0,4.0,90,-99.99,,,-99.99,,2013-05-19 12:01:00,
2013-05-19 07:11:00,63.0,60.0,-100.00,East,85,6.0,8.0,90,-99.99,,,-99.99,,2013-05-19 12:11:00,
2013-05-19 07:22:00,63.0,60.0,-100.00,East,95,8.0,10.0,89,-99.99,,,-99.99,,2013-05-19 12:22:00,
2013-05-19 07:32:00,63.0,60.0,-100.00,East,95,8.0,10.0,89,-99.99,,,-99.99,,2013-05-19 12:32:00,
2013-05-19 07:42:00,64.0,60.0,-100.00,East,95,8.0,12.0,88,-99.99,,,-99.99,,2013-05-19 12:42:00,
2013-05-19 07:52:00,66.0,61.0,-100.00,East,95,11.0,16.0,85,-99.99,,,-99.99,,2013-05-19 12:52:00,
2013-05-19 08:01:00,66.0,61.0,-100.00,East,95,11.0,16.0,85,-99.99,,,-99.99,,2013-05-19 13:01:00,
2013-05-19 08:11:00,67.0,62.0,-100.00,ESE,110,14.0,17.0,82,-99.99,,,-99.99,,2013-05-19 13:11:00,
2013-05-19 08:21:00,68.0,62.0,-100.00,ESE,120,9.0,14.0,81,-99.99,,,-99.99,,2013-05-19 13:21:00,
2013-05-19 08:32:00,68.0,62.0,-100.00,ESE,120,9.0,14.0,81,-99.99,,,-99.99,,2013-05-19 13:32:00,
2013-05-19 08:42:00,69.0,62.0,-100.00,SE,130,6.0,10.0,79,-99.99,,,-99.99,,2013-05-19 13:42:00,
2013-05-19 08:52:00,70.0,63.0,-100.00,SE,140,7.0,11.0,77,-99.99,,,-99.99,,2013-05-19 13:52:00,
2013-05-19 09:00:00,71.0,63.0,-100.00,South,185,5.0,7.0,75,-99.99,,,-99.99,,2013-05-19 14:00:00,
2013-05-19 09:02:00,70.0,63.0,-100.00,SE,140,7.0,11.0,77,-99.99,,,-99.99,,2013-05-19 14:02:00,
2013-05-19 09:11:00,70.0,62.0,-100.00,WSW,255,4.0,7.0,77,-99.99,,,-99.99,,2013-05-19 14:11:00,
2013-05-19 09:21:00,71.0,63.0,-100.00,SSE,150,1.0,4.0,76,-99.99,,,-99.99,,2013-05-19 14:21:00,
2013-05-19 09:32:00,71.0,63.0,-100.00,SSE,150,1.0,4.0,76,-99.99,,,-99.99,,2013-05-19 14:32:00,
2013-05-19 09:42:00,71.0,63.0,-100.00,South,185,5.0,7.0,75,-99.99,,,-99.99,,2013-05-19 14:42:00,
2013-05-19 09:52:00,71.0,63.0,-100.00,South,185,5.0,7.0,75,-99.99,,,-99.99,,2013-05-19 14:52:00,
2013-05-19 10:11:00,73.0,62.0,-100.00,SSE,150,6.0,12.0,69,-99.99,,,-99.99,,2013-05-19 15:11:00,
2013-05-19 10:22:00,73.0,62.0,-100.00,ESE,110,9.0,11.0,69,-99.99,,,-99.99,,2013-05-19 15:22:00,
2013-05-19 10:33:00,73.0,62.0,-100.00,ESE,110,9.0,11.0,69,-99.99,,,-99.99,,2013-05-19 15:33:00,
2013-05-19 10:43:00,73.0,62.0,-100.00,ESE,105,11.0,17.0,68,-99.99,,,-99.99,,2013-05-19 15:43:00,
2013-05-19 10:53:00,73.0,62.0,-100.00,East,100,15.0,19.0,67,-99.99,,,-99.99,,2013-05-19 15:53:00,
2013-05-19 11:03:00,73.0,62.0,-100.00,East,100,15.0,19.0,67,-99.99,,,-99.99,,2013-05-19 16:03:00,
2013-05-19 11:12:00,74.0,62.0,-100.00,ESE,110,19.0,26.0,65,-99.99,,,-99.99,,2013-05-19 16:12:00,
2013-05-19 11:23:00,75.0,61.0,-100.00,ESE,115,16.0,23.0,62,-99.99,,,-99.99,,2013-05-19 16:23:00,
2013-05-19 11:32:00,75.0,61.0,-100.00,ESE,115,16.0,23.0,62,-99.99,,,-99.99,,2013-05-19 16:32:00,
2013-05-19 11:42:00,77.0,61.0,-100.00,ESE,115,16.0,23.0,58,-99.99,,,-99.99,,2013-05-19 16:42:00,
2013-05-19 11:52:00,79.0,62.0,-100.00,SE,135,11.0,19.0,57,-99.99,,,-99.99,,2013-05-19 16:52:00,
2013-05-19 12:02:00,79.0,62.0,-100.00,SE,135,11.0,19.0,57,-99.99,,,-99.99,,2013-05-19 17:02:00,
2013-05-19 12:12:00,77.0,61.0,-100.00,ESE,115,16.0,25.0,57,-99.99,,,-99.99,,2013-05-19 17:12:00,
2013-05-19 12:22:00,80.0,62.0,-100.00,SE,135,16.0,24.0,54,-99.99,,,-99.99,,2013-05-19 17:22:00,
2013-05-19 12:32:00,80.0,62.0,-100.00,SE,135,16.0,24.0,54,-99.99,,,-99.99,,2013-05-19 17:32:00,
2013-05-19 12:42:00,81.0,62.0,-100.00,SE,135,19.0,26.0,52,-99.99,,,-99.99,,2013-05-19 17:42:00,
2013-05-19 12:52:00,82.0,61.0,-100.00,SE,135,18.0,27.0,50,-99.99,,,-99.99,,2013-05-19 17:52:00,
2013-05-19 13:02:00,82.0,61.0,-100.00,SE,135,18.0,27.0,50,-99.99,,,-99.99,,2013-05-19 18:02:00,
2013-05-19 13:12:00,83.0,62.0,-100.00,SE,140,14.0,26.0,50,-99.99,,,-99.99,,2013-05-19 18:12:00,
2013-05-19 13:22:00,83.0,61.0,-100.00,SE,140,13.0,24.0,47,-99.99,,,-99.99,,2013-05-19 18:22:00,
2013-05-19 13:32:00,83.0,61.0,-100.00,SE,140,13.0,24.0,47,-99.99,,,-99.99,,2013-05-19 18:32:00,
2013-05-19 13:42:00,83.0,61.0,-100.00,SSE,150,20.0,27.0,47,-99.99,,,-99.99,,2013-05-19 18:42:00,
2013-05-19 13:53:00,84.0,62.0,-100.00,South,170,11.0,22.0,48,-99.99,,,-99.99,,2013-05-19 18:53:00,
2013-05-19 14:01:00,84.0,62.0,-100.00,South,170,11.0,22.0,48,-99.99,,,-99.99,,2013-05-19 19:01:00,
2013-05-19 14:11:00,85.0,62.0,-100.00,SSE,150,11.0,26.0,47,-99.99,,,-99.99,,2013-05-19 19:11:00,
2013-05-19 14:22:00,85.0,61.0,-100.00,South,190,14.0,21.0,45,-99.99,,,-99.99,,2013-05-19 19:22:00,
2013-05-19 14:32:00,85.0,61.0,-100.00,South,190,14.0,21.0,45,-99.99,,,-99.99,,2013-05-19 19:32:00,
2013-05-19 14:42:00,85.0,61.0,-100.00,South,190,14.0,21.0,45,-99.99,,,-99.99,,2013-05-19 19:42:00,
2013-05-19 14:52:00,85.0,63.0,-100.00,South,180,9.0,19.0,47,-99.99,,,-99.99,,2013-05-19 19:52:00,
2013-05-19 15:02:00,85.0,63.0,-100.00,South,180,9.0,19.0,47,-99.99,,,-99.99,,2013-05-19 20:02:00,
2013-05-19 15:11:00,83.0,63.0,-100.00,WSW,250,7.0,16.0,51,-99.99,,,-99.99,,2013-05-19 20:11:00,
2013-05-19 15:21:00,73.0,55.0,-100.00,NNW,330,8.0,26.0,53,-99.99,,,-99.99,,2013-05-19 20:21:00,
2013-05-19 15:42:00,77.0,60.0,-100.00,WSW,255,2.0,9.0,56,-99.99,,,-99.99,,2013-05-19 20:42:00,
2013-05-19 15:52:00,76.0,61.0,-100.00,East,85,4.0,6.0,59,-99.99,,,-99.99,,2013-05-19 20:52:00,
2013-05-19 16:02:00,76.0,61.0,-100.00,East,85,4.0,6.0,59,-99.99,,,-99.99,,2013-05-19 21:02:00,
2013-05-19 16:11:00,81.0,62.0,-100.00,NE,45,4.0,10.0,51,-99.99,,,-99.99,,2013-05-19 21:11:00,
2013-05-19 16:22:00,83.0,61.0,-100.00,East,95,9.0,14.0,47,-99.99,,,-99.99,,2013-05-19 21:22:00,
2013-05-19 16:32:00,83.0,61.0,-100.00,East,95,9.0,14.0,47,-99.99,,,-99.99,,2013-05-19 21:32:00,
2013-05-19 16:43:00,85.0,63.0,-100.00,ESE,105,13.0,16.0,48,-99.99,,,-99.99,,2013-05-19 21:43:00,
2013-05-19 16:53:00,87.0,63.0,-100.00,ESE,115,14.0,21.0,45,-99.99,,,-99.99,,2013-05-19 21:53:00,
2013-05-19 17:03:00,87.0,63.0,-100.00,ESE,115,14.0,21.0,45,-99.99,,,-99.99,,2013-05-19 22:03:00,
2013-05-19 17:12:00,87.0,63.0,-100.00,ESE,115,14.0,21.0,45,-99.99,,,-99.99,,2013-05-19 22:12:00,
2013-05-19 17:23:00,87.0,62.0,-100.00,SE,135,16.0,26.0,44,-99.99,,,-99.99,,2013-05-19 22:23:00,
2013-05-19 17:33:00,87.0,62.0,-100.00,SE,135,16.0,26.0,44,-99.99,,,-99.99,,2013-05-19 22:33:00,
2013-05-19 17:42:00,87.0,62.0,-100.00,SE,135,16.0,23.0,43,-99.99,,,-99.99,,2013-05-19 22:42:00,
2013-05-19 17:53:00,87.0,62.0,-100.00,ESE,110,16.0,26.0,44,-99.99,,,-99.99,,2013-05-19 22:53:00,
2013-05-19 18:02:00,87.0,62.0,-100.00,ESE,110,16.0,26.0,44,-99.99,,,-99.99,,2013-05-19 23:02:00,
2013-05-19 18:12:00,87.0,62.0,-100.00,ESE,110,16.0,26.0,44,-99.99,,,-99.99,,2013-05-19 23:12:00,
2013-05-19 18:22:00,86.0,62.0,-100.00,SE,135,13.0,30.0,44,-99.99,,,-99.99,,2013-05-19 23:22:00,
2013-05-19 18:32:00,86.0,62.0,-100.00,SE,135,13.0,30.0,44,-99.99,,,-99.99,,2013-05-19 23:32:00,
2013-05-19 18:42:00,86.0,62.0,-100.00,SE,130,14.0,24.0,45,-99.99,,,-99.99,,2013-05-19 23:42:00,
2013-05-19 18:52:00,86.0,62.0,-100.00,SE,130,12.0,24.0,45,-99.99,,,-99.99,,2013-05-19 23:52:00,
2013-05-19 19:00:00,86.0,63.0,-100.00,SE,140,16.0,24.0,46,-99.99,,,-99.99,,2013-05-20 00:00:00,
2013-05-19 19:02:00,86.0,62.0,-100.00,SE,130,12.0,24.0,45,-99.99,,,-99.99,,2013-05-20 00:02:00,
2013-05-19 19:11:00,86.0,62.0,-100.00,SE,140,16.0,27.0,45,-99.99,,,-99.99,,2013-05-20 00:11:00,
2013-05-19 19:22:00,86.0,62.0,-100.00,SE,140,17.0,23.0,45,-99.99,,,-99.99,,2013-05-20 00:22:00,
2013-05-19 19:32:00,86.0,62.0,-100.00,SE,140,17.0,23.0,45,-99.99,,,-99.99,,2013-05-20 00:32:00,
2013-05-19 19:42:00,86.0,63.0,-100.00,SE,140,16.0,24.0,46,-99.99,,,-99.99,,2013-05-20 00:42:00,
2013-05-19 19:52:00,86.0,63.0,-100.00,SE,140,16.0,24.0,46,-99.99,,,-99.99,,2013-05-20 00:52:00,
2013-05-19 20:11:00,85.0,63.0,-100.00,SE,135,11.0,24.0,47,-99.99,,,-99.99,,2013-05-20 01:11:00,
2013-05-19 20:21:00,85.0,62.0,-100.00,SE,145,15.0,20.0,46,-99.99,,,-99.99,,2013-05-20 01:21:00,
2013-05-19 20:31:00,85.0,62.0,-100.00,SE,145,15.0,20.0,46,-99.99,,,-99.99,,2013-05-20 01:31:00,
2013-05-19 20:42:00,85.0,63.0,-100.00,SE,145,12.0,18.0,48,-99.99,,,-99.99,,2013-05-20 01:42:00,
2013-05-19 20:52:00,84.0,64.0,-100.00,SE,145,11.0,16.0,50,-99.99,,,-99.99,,2013-05-20 01:52:00,
2013-05-19 21:02:00,84.0,64.0,-100.00,SE,145,11.0,16.0,50,-99.99,,,-99.99,,2013-05-20 02:02:00,
2013-05-19 21:11:00,77.0,56.0,-100.00,South,175,23.0,58.0,49,-99.99,,,-99.99,,2013-05-20 02:11:00,
2013-05-19 21:21:00,69.0,58.0,-100.00,South,190,19.0,35.0,68,-99.99,,,-99.99,,2013-05-20 02:21:00,
2013-05-19 21:42:00,69.0,58.0,-100.00,SSW,205,15.0,23.0,69,-99.99,,,-99.99,,2013-05-20 02:42:00,
2013-05-19 21:52:00,72.0,57.0,-100.00,SSW,195,14.0,23.0,59,-99.99,,,-99.99,,2013-05-20 02:52:00,
2013-05-19 22:00:00,70.0,57.0,-100.00,ENE,70,4.0,4.0,64,-99.99,,,-99.99,,2013-05-20 03:00:00,
2013-05-19 22:01:00,72.0,57.0,-100.00,SSW,195,14.0,23.0,59,-99.99,,,-99.99,,2013-05-20 03:01:00,
2013-05-19 22:11:00,72.0,56.0,-100.00,WSW,250,9.0,21.0,57,-99.99,,,-99.99,,2013-05-20 03:11:00,
2013-05-19 22:21:00,71.0,56.0,-100.00,NNE,20,6.0,9.0,60,-99.99,,,-99.99,,2013-05-20 03:21:00,
2013-05-19 22:33:00,71.0,56.0,-100.00,NNE,20,6.0,9.0,60,-99.99,,,-99.99,,2013-05-20 03:33:00,
2013-05-19 22:43:00,70.0,57.0,-100.00,ENE,70,4.0,4.0,64,-99.99,,,-99.99,,2013-05-20 03:43:00,
2013-05-19 22:52:00,70.0,57.0,-100.00,ENE,70,4.0,4.0,64,-99.99,,,-99.99,,2013-05-20 03:52:00,
2013-05-19 23:23:00,68.0,58.0,-100.00,SE,125,12.0,21.0,69,-99.99,,,-99.99,,2013-05-20 04:23:00,
2013-05-19 23:30:00,67.0,59.0,-100.00,ESE,115,9.0,14.0,74,-99.99,,,-99.99,,2013-05-20 04:30:00,
2013-05-19 23:33:00,68.0,58.0,-100.00,SE,125,12.0,21.0,69,-99.99,,,-99.99,,2013-05-20 04:33:00,
2013-05-19 23:42:00,67.0,58.0,-100.00,SE,125,12.0,16.0,73,-99.99,,,-99.99,,2013-05-20 04:42:00,
2013-05-19 23:53:00,67.0,58.0,-100.00,ESE,120,9.0,15.0,73,-99.99,,,-99.99,,2013-05-20 04:53:00,